Time,TemperatureF,DewpointF,PressureIn,WindDirection,WindDirectionDegrees,WindSpeedMPH,WindSpeedGustMPH,Humidity,HourlyPrecipIn,Conditions,Clouds,dailyrainin,SoftwareType,DateUTC
2013-10-04 00:40:00,56.9,55.0,29.96,NNE,22,1.0,-999.0,92,-99.99,,,0.00,weatherlink.com 1.10,2013-10-04 04:40:00,
2013-10-04 00:55:00,57.2,55.0,29.95,NNE,22,0.0,-999.0,91,-99.99,,,0.00,weatherlink.com 1.10,2013-10-04 04:55:00,
2013-10-04 01:10:00,57.2,54.0,29.95,NNE,22,0.0,-999.0,90,-99.99,,,0.00,weatherlink.com 1.10,2013-10-04 05:10:00,
2013-10-04 01:25:00,56.7,53.0,29.95,NNE,22,0.0,-999.0,88,-99.99,,,0.00,weatherlink.com 1.10,2013-10-04 05:25:00,
2013-10-04 01:40:00,56.2,52.0,29.96,NNE,22,0.0,-999.0,86,-99.99,,,0.00,weatherlink.com 1.10,2013-10-04 05:40:00,
2013-10-04 01:54:00,56.0,51.0,29.96,NNE,22,0.0,-999.0,84,-99.99,,,0.00,weatherlink.com 1.10,2013-10-04 05:54:00,
2013-10-04 02:10:00,55.3,50.0,29.96,NNE,22,0.0,-999.0,82,-99.99,,,0.00,weatherlink.com 1.10,2013-10-04 06:10:00,
2013-10-04 02:25:00,55.6,50.0,29.96,NNE,22,0.0,-999.0,80,-99.99,,,0.00,weatherlink.com 1.10,2013-10-04 06:25:00,
2013-10-04 02:40:00,56.0,50.0,29.95,NNE,22,0.0,-999.0,81,-99.99,,,0.00,weatherlink.com 1.10,2013-10-04 06:40:00,
2013-10-04 02:55:00,56.3,52.0,29.96,NNE,22,0.0,-999.0,84,-99.99,,,0.00,weatherlink.com 1.10,2013-10-04 06:55:00,
2013-10-04 03:10:00,55.7,52.0,29.95,NNE,22,0.0,-999.0,86,-99.99,,,0.00,weatherlink.com 1.10,2013-10-04 07:10:00,
2013-10-04 03:25:00,55.4,51.0,29.95,NNE,22,0.0,-999.0,85,-99.99,,,0.00,weatherlink.com 1.10,2013-10-04 07:25:00,
2013-10-04 03:40:00,55.0,51.0,29.95,NNE,22,0.0,-999.0,86,-99.99,,,0.00,weatherlink.com 1.10,2013-10-04 07:40:00,
2013-10-04 03:55:00,55.0,51.0,29.95,NNE,22,0.0,-999.0,87,-99.99,,,0.00,weatherlink.com 1.10,2013-10-04 07:55:00,
2013-10-04 04:10:00,55.3,52.0,29.95,NNE,22,0.0,-999.0,89,-99.99,,,0.00,weatherlink.com 1.10,2013-10-04 08:10:00,
2013-10-04 04:25:00,54.8,52.0,29.95,NNE,22,0.0,-999.0,89,-99.99,,,0.00,weatherlink.com 1.10,2013-10-04 08:25:00,
2013-10-04 04:40:00,54.7,52.0,29.95,NNE,22,0.0,-999.0,90,-99.99,,,0.00,weatherlink.com 1.10,2013-10-04 08:40:00,
2013-10-04 04:55:00,54.7,52.0,29.96,NNE,22,0.0,-999.0,91,-99.99,,,0.00,weatherlink.com 1.10,2013-10-04 08:55:00,
2013-10-04 05:10:00,54.2,51.0,29.96,NNE,22,0.0,-999.0,90,-99.99,,,0.00,weatherlink.com 1.10,2013-10-04 09:10:00,
2013-10-04 05:25:00,54.8,52.0,29.96,NW,318,2.0,-999.0,91,-99.99,,,0.00,weatherlink.com 1.10,2013-10-04 09:25:00,
2013-10-04 05:40:00,54.8,52.0,29.97,NW,318,2.0,-999.0,91,-99.99,,,0.00,weatherlink.com 1.10,2013-10-04 09:40:00,
2013-10-04 05:54:00,54.7,52.0,29.97,NW,318,4.0,-999.0,91,-99.99,,,0.00,weatherlink.com 1.10,2013-10-04 09:54:00,
2013-10-04 06:10:00,55.0,52.0,29.97,North,8,4.0,-999.0,89,-99.99,,,0.00,weatherlink.com 1.10,2013-10-04 10:10:00,
2013-10-04 06:25:00,55.1,51.0,29.97,NNE,16,4.0,-999.0,85,-99.99,,,0.00,weatherlink.com 1.10,2013-10-04 10:25:00,
2013-10-04 06:40:00,55.1,51.0,29.98,NNE,15,3.0,-999.0,86,-99.99,,,0.00,weatherlink.com 1.10,2013-10-04 10:40:00,
2013-10-04 06:55:00,55.1,49.0,29.98,NNE,15,4.0,-999.0,81,-99.99,,,0.00,weatherlink.com 1.10,2013-10-04 10:55:00,
2013-10-04 07:10:00,55.4,49.0,29.98,NNE,15,0.0,-999.0,78,-99.99,,,0.00,weatherlink.com 1.10,2013-10-04 11:10:00,
2013-10-04 07:25:00,54.8,50.0,29.98,NNE,30,12.0,-999.0,84,-99.99,,,0.00,weatherlink.com 1.10,2013-10-04 11:25:00,
2013-10-04 07:40:00,54.4,50.0,29.99,NNE,27,10.0,-999.0,84,-99.99,,,0.00,weatherlink.com 1.10,2013-10-04 11:40:00,
2013-10-04 07:55:00,54.5,50.0,29.99,NE,34,3.0,-999.0,85,-99.99,,,0.00,weatherlink.com 1.10,2013-10-04 11:55:00,
2013-10-04 08:10:00,55.4,50.0,29.99,NNE,33,0.0,-999.0,82,-99.99,,,0.00,weatherlink.com 1.10,2013-10-04 12:10:00,
2013-10-04 08:25:00,56.2,50.0,30.00,NNE,27,5.0,-999.0,81,-99.99,,,0.00,weatherlink.com 1.10,2013-10-04 12:25:00,
2013-10-04 08:40:00,56.3,51.0,30.00,NNE,26,0.0,-999.0,83,-99.99,,,0.00,weatherlink.com 1.10,2013-10-04 12:40:00,
2013-10-04 08:55:00,56.9,51.0,30.00,NW,318,3.0,-999.0,81,-99.99,,,0.00,weatherlink.com 1.10,2013-10-04 12:55:00,
2013-10-04 09:10:00,57.2,51.0,30.00,NW,317,0.0,-999.0,80,-99.99,,,0.00,weatherlink.com 1.10,2013-10-04 13:10:00,
2013-10-04 09:25:00,57.6,51.0,30.00,NW,317,0.0,-999.0,79,-99.99,,,0.00,weatherlink.com 1.10,2013-10-04 13:25:00,
2013-10-04 09:40:00,59.5,50.0,30.00,North,0,3.0,-999.0,72,-99.99,,,0.00,weatherlink.com 1.10,2013-10-04 13:40:00,
2013-10-04 09:54:00,59.0,51.0,30.00,North,8,0.0,-999.0,76,-99.99,,,0.00,weatherlink.com 1.10,2013-10-04 13:54:00,
2013-10-04 10:10:00,60.5,49.0,30.00,North,8,0.0,-999.0,67,-99.99,,,0.00,weatherlink.com 1.10,2013-10-04 14:10:00,
2013-10-04 10:25:00,60.2,52.0,30.00,North,358,0.0,-999.0,74,-99.99,,,0.00,weatherlink.com 1.10,2013-10-04 14:25:00,
2013-10-04 10:40:00,59.9,50.0,30.00,West,262,0.0,-999.0,69,-99.99,,,0.00,weatherlink.com 1.10,2013-10-04 14:40:00,
2013-10-04 10:55:00,61.8,51.0,30.00,West,262,0.0,-999.0,68,-99.99,,,0.00,weatherlink.com 1.10,2013-10-04 14:55:00,
2013-10-04 11:10:00,61.6,52.0,29.99,West,261,0.0,-999.0,71,-99.99,,,0.00,weatherlink.com 1.10,2013-10-04 15:10:00,
2013-10-04 11:25:00,62.1,50.0,29.99,West,261,0.0,-999.0,64,-99.99,,,0.00,weatherlink.com 1.10,2013-10-04 15:25:00,
2013-10-04 11:40:00,63.5,51.0,29.98,WSW,238,3.0,-999.0,64,-99.99,,,0.00,weatherlink.com 1.10,2013-10-04 15:40:00,
2013-10-04 11:55:00,66.6,51.0,29.98,SE,126,0.0,-999.0,58,-99.99,,,0.00,weatherlink.com 1.10,2013-10-04 15:55:00,
2013-10-04 12:09:00,67.3,45.0,29.98,SE,136,5.0,-999.0,45,-99.99,,,0.00,weatherlink.com 1.10,2013-10-04 16:09:00,
2013-10-04 12:24:00,67.3,46.0,29.98,SE,140,3.0,-999.0,46,-99.99,,,0.00,weatherlink.com 1.10,2013-10-04 16:24:00,
2013-10-04 12:39:00,66.6,45.0,29.98,South,172,0.0,-999.0,46,-99.99,,,0.00,weatherlink.com 1.10,2013-10-04 16:39:00,
2013-10-04 12:54:00,67.3,43.0,29.97,South,174,0.0,-999.0,41,-99.99,,,0.00,weatherlink.com 1.10,2013-10-04 16:54:00,
2013-10-04 13:09:00,66.9,44.0,29.97,SSW,203,0.0,-999.0,43,-99.99,,,0.00,weatherlink.com 1.10,2013-10-04 17:09:00,
2013-10-04 13:24:00,66.8,43.0,29.97,SSE,155,5.0,-999.0,42,-99.99,,,0.00,weatherlink.com 1.10,2013-10-04 17:24:00,
2013-10-04 14:09:00,65.0,45.0,29.96,SSE,167,0.0,-999.0,49,-99.99,,,0.00,weatherlink.com 1.10,2013-10-04 18:09:00,
2013-10-04 14:24:00,64.7,46.0,29.95,SSE,159,0.0,-999.0,51,-99.99,,,0.00,weatherlink.com 1.10,2013-10-04 18:24:00,
2013-10-04 14:39:00,64.7,47.0,29.95,SW,219,0.0,-999.0,53,-99.99,,,0.00,weatherlink.com 1.10,2013-10-04 18:39:00,
2013-10-04 14:54:00,64.7,43.0,29.95,SSW,207,3.0,-999.0,46,-99.99,,,0.00,weatherlink.com 1.10,2013-10-04 18:54:00,
2013-10-04 15:09:00,65.5,42.0,29.95,SW,221,6.0,-999.0,43,-99.99,,,0.00,weatherlink.com 1.10,2013-10-04 19:09:00,
2013-10-04 15:24:00,64.7,44.0,29.94,SSW,205,0.0,-999.0,48,-99.99,,,0.00,weatherlink.com 1.10,2013-10-04 19:24:00,
2013-10-04 15:39:00,65.3,42.0,29.94,South,186,1.0,-999.0,43,-99.99,,,0.00,weatherlink.com 1.10,2013-10-04 19:39:00,
2013-10-04 15:54:00,65.3,43.0,29.95,South,173,0.0,-999.0,44,-99.99,,,0.00,weatherlink.com 1.10,2013-10-04 19:54:00,
2013-10-04 16:09:00,65.2,43.0,29.95,SSW,206,4.0,-999.0,45,-99.99,,,0.00,weatherlink.com 1.10,2013-10-04 20:09:00,
2013-10-04 16:24:00,64.2,44.0,29.95,SSW,212,10.0,-999.0,49,-99.99,,,0.00,weatherlink.com 1.10,2013-10-04 20:24:00,
2013-10-04 16:39:00,63.7,46.0,29.95,SSE,167,4.0,-999.0,53,-99.99,,,0.00,weatherlink.com 1.10,2013-10-04 20:39:00,
2013-10-04 16:54:00,64.0,46.0,29.95,SSW,200,2.0,-999.0,52,-99.99,,,0.00,weatherlink.com 1.10,2013-10-04 20:54:00,
2013-10-04 17:09:00,62.7,48.0,29.95,South,169,4.0,-999.0,60,-99.99,,,0.00,weatherlink.com 1.10,2013-10-04 21:09:00,
2013-10-04 17:24:00,61.8,50.0,29.95,South,179,5.0,-999.0,66,-99.99,,,0.00,weatherlink.com 1.10,2013-10-04 21:24:00,
2013-10-04 17:39:00,61.6,51.0,29.95,SSE,167,0.0,-999.0,69,-99.99,,,0.00,weatherlink.com 1.10,2013-10-04 21:39:00,
2013-10-04 17:54:00,61.6,50.0,29.95,South,182,6.0,-999.0,66,-99.99,,,0.00,weatherlink.com 1.10,2013-10-04 21:54:00,
2013-10-04 18:09:00,61.5,51.0,29.95,South,187,6.0,-999.0,68,-99.99,,,0.00,weatherlink.com 1.10,2013-10-04 22:09:00,
2013-10-04 18:25:00,60.9,53.0,29.95,SW,227,6.0,-999.0,75,-99.99,,,0.00,weatherlink.com 1.10,2013-10-04 22:25:00,
2013-10-04 18:40:00,60.9,53.0,29.95,South,187,6.0,-999.0,76,-99.99,,,0.00,weatherlink.com 1.10,2013-10-04 22:40:00,
2013-10-04 18:55:00,60.7,54.0,29.96,SW,214,6.0,-999.0,78,-99.99,,,0.00,weatherlink.com 1.10,2013-10-04 22:55:00,
2013-10-04 19:10:00,60.4,54.0,29.96,SW,222,6.0,-999.0,80,-99.99,,,0.00,weatherlink.com 1.10,2013-10-04 23:10:00,
2013-10-04 19:25:00,60.7,53.0,29.96,SW,216,4.0,-999.0,76,-99.99,,,0.00,weatherlink.com 1.10,2013-10-04 23:25:00,
2013-10-04 19:40:00,60.5,53.0,29.96,SW,221,0.0,-999.0,77,-99.99,,,0.00,weatherlink.com 1.10,2013-10-04 23:40:00,
2013-10-04 19:55:00,60.5,53.0,29.96,SW,221,0.0,-999.0,76,-99.99,,,0.00,weatherlink.com 1.10,2013-10-04 23:55:00,
2013-10-04 20:10:00,60.4,53.0,29.96,SW,221,0.0,-999.0,76,-99.99,,,0.00,weatherlink.com 1.10,2013-10-05 00:10:00,
2013-10-04 20:25:00,60.1,54.0,29.96,SW,221,0.0,-999.0,79,-99.99,,,0.00,weatherlink.com 1.10,2013-10-05 00:25:00,
2013-10-04 20:40:00,59.9,54.0,29.97,SW,221,3.0,-999.0,82,-99.99,,,0.00,weatherlink.com 1.10,2013-10-05 00:40:00,
2013-10-04 20:55:00,59.0,56.0,29.97,SW,221,0.0,-999.0,88,-99.99,,,0.00,weatherlink.com 1.10,2013-10-05 00:55:00,
2013-10-04 21:10:00,58.6,55.0,29.98,SW,221,0.0,-999.0,88,-99.99,,,0.00,weatherlink.com 1.10,2013-10-05 01:10:00,
2013-10-04 21:25:00,58.4,55.0,29.98,SW,221,0.0,-999.0,88,-99.99,,,0.00,weatherlink.com 1.10,2013-10-05 01:25:00,
2013-10-04 21:40:00,58.7,55.0,29.98,SW,221,0.0,-999.0,86,-99.99,,,0.00,weatherlink.com 1.10,2013-10-05 01:40:00,
2013-10-04 21:54:00,58.4,53.0,29.98,SW,221,0.0,-999.0,83,-99.99,,,0.00,weatherlink.com 1.10,2013-10-05 01:54:00,
2013-10-04 22:10:00,58.6,52.0,29.98,SW,221,0.0,-999.0,80,-99.99,,,0.00,weatherlink.com 1.10,2013-10-05 02:10:00,
2013-10-04 22:25:00,58.4,54.0,29.98,SW,221,0.0,-999.0,86,-99.99,,,0.00,weatherlink.com 1.10,2013-10-05 02:25:00,
2013-10-04 22:40:00,57.5,54.0,29.98,SW,221,0.0,-999.0,88,-99.99,,,0.00,weatherlink.com 1.10,2013-10-05 02:40:00,
2013-10-04 22:55:00,56.7,54.0,29.99,North,5,4.0,-999.0,89,-99.99,,,0.00,weatherlink.com 1.10,2013-10-05 02:55:00,
2013-10-04 23:10:00,57.3,54.0,29.99,NNE,20,0.0,-999.0,87,-99.99,,,0.00,weatherlink.com 1.10,2013-10-05 03:10:00,
2013-10-04 23:25:00,57.2,54.0,29.99,NNE,20,3.0,-999.0,88,-99.99,,,0.00,weatherlink.com 1.10,2013-10-05 03:25:00,
2013-10-04 23:40:00,57.8,56.0,30.00,NNE,19,5.0,-999.0,92,-99.99,,,0.00,weatherlink.com 1.10,2013-10-05 03:40:00,
2013-10-04 23:55:00,57.8,56.0,29.99,NNE,22,2.0,-999.0,93,-99.99,,,0.00,weatherlink.com 1.10,2013-10-05 03:55:00,